This is the latest recevied weather packets stored in our database for station/object FW0690. If no packets are shown the sender has not sent any weather packets the latest 10 day(s).
| Time | Temp. | Humidity | Pressure | Rain* | Wind** | Luminosity | Snow |
|---|---|---|---|---|---|---|---|
| 1787741150 | 32.22° C | 39% | 1014.1 hPa | - | - | 36 W/m² | - |
| 1787740790 | 31.67° C | 39% | 1014.1 hPa | - | - | 33 W/m² | - |
| 1787740429 | 31.67° C | 39% | 1014.2 hPa | - | - | 33 W/m² | - |
| 1787740069 | 31.11° C | 40% | 1014.2 hPa | - | - | 51 W/m² | - |
| 1787739710 | 31.11° C | 40% | 1014.3 hPa | - | - | 203 W/m² | - |
| 1787739349 | 31.11° C | 41% | 1014.4 hPa | - | - | 205 W/m² | - |
| 1787738989 | 30.56° C | 43% | 1014.4 hPa | - | - | 205 W/m² | - |
| 1787738629 | 30.56° C | 44% | 1014.4 hPa | - | - | 225 W/m² | - |
| 1787738270 | 30° C | 45% | 1014.5 hPa | - | - | 58 W/m² | - |
| 1787737909 | 29.44° C | 46% | 1014.5 hPa | - | - | 42 W/m² | - |
| 1787737550 | 29.44° C | 47% | 1014.4 hPa | - | - | 166 W/m² | - |
| 1787737549 | 29.44° C | 47% | 1014.4 hPa | - | - | 166 W/m² | - |
| 1787737189 | 28.89° C | 49% | 1014.4 hPa | - | - | 207 W/m² | - |
| 1787736829 | 28.33° C | 50% | 1014.4 hPa | - | - | 181 W/m² | - |
| 1787736469 | 27.78° C | 51% | 1014.5 hPa | - | - | 90 W/m² | - |
| 1787736109 | 28.89° C | 53% | 1014.4 hPa | - | - | 115 W/m² | - |
| 1787735749 | 27.78° C | 55% | 1014.4 hPa | - | - | 72 W/m² | - |
| 1787735393 | 27.22° C | 57% | 1014.4 hPa | - | - | 54 W/m² | - |
| 1787735393 | 27.22° C | 57% | 1014.4 hPa | - | - | 54 W/m² | - |
| 1787735029 | 26.67° C | 59% | 1014.6 hPa | - | - | 102 W/m² | - |
| 1787734669 | 26.11° C | 61% | 1014.6 hPa | - | - | 35 W/m² | - |
| 1787734309 | 25.56° C | 64% | 1014.7 hPa | - | - | 95 W/m² | - |
| 1787733950 | 23.89° C | 66% | 1014.6 hPa | - | - | 39 W/m² | - |
| 1787733949 | 23.89° C | 66% | 1014.6 hPa | - | - | 39 W/m² | - |
| 1787733589 | 22.78° C | 67% | 1014.6 hPa | - | - | 32 W/m² | - |
* Rain since midnight (hover to see other rain measurements)
** Current wind speed in m/s (hover to see current wind gust speed)